Weather History for KIBM - July, 2014

Change the Weather History Date:

Sunday, July 6, 2014

  Actual Average (KSNY) Record (KSNY)
Temperature  
Mean Temperature 72 °F 74 °F  
Max Temperature 87 °F 90 °F 104 °F (1989)
Min Temperature 57 °F 59 °F 48 °F (2004)
Degree Days  
Heating Degree Days 0 0  
Month to date heating degree days 0  
Since 1 June heating degree days 59  
Since 1 July heating degree days 0  
Cooling Degree Days 7 9  
Month to date cooling degree days 53  
Year to date cooling degree days 212  
Since 1 June cooling degree days 190  
Growing Degree Days 22 (Base 50)    
Moisture  
Dew Point 46 °F    
Average Humidity 40    
Maximum Humidity 65    
Minimum Humidity 23    
Precipitation  
Precipitation 0.00 in 0.09 in 3.21 in (2010)
Month to date precipitation 0.55  
Year to date precipitation 10.49  
Sea Level Pressure  
Sea Level Pressure 30.12 in    
Wind  
Wind Speed 8 mph (North)    
Max Wind Speed 17 mph    
Max Gust Speed 23 mph    
Visibility 10 miles    
Events      
T = Trace of Precipitation, MM = Missing Value Source: NWS Daily Summary

Daily Weather History Graph

Daily Weather History Graph

Search for Another Location

Airport or City:

Trip Planner

Search our weather history database for the weather conditions in past years. The results will help you decide how hot, cold, wet, or windy it might be!

Date:

Astronomy

Jul. 06, 2014 Rise Set
Actual Time 6:28 AM CDT 9:30 PM CDT
Civil Twilight 5:55 AM CDT 10:03 PM CDT
Nautical Twilight 5:12 AM CDT 10:45 PM CDT
Astronomical Twilight 4:22 AM CDT 11:35 PM CDT
Moon 3:30 PM CDT (7/6) 1:51 AM CDT (7/6)
Length of Visible Light 16h 08m
Length of Day
15h 01m
Waxing Gibbous, 62% of the Moon is Illuminated
Jul 6
Waxing Gibbous
Jul 12
Full
Jul 18
Last Quarter
Jul 26
New
Aug 3
First Quarter

Hourly Weather History & Observations

Time (CDT) Temp. Heat Index Dew Point Humidity Pressure Visibility Wind Dir Wind Speed Gust Speed Precip Events Conditions
12:15 AM 67.8 °F - 44.4 °F 43% 30.10 in 10.0 mi South 3.5 mph - N/A   Clear
12:35 AM 67.6 °F - 44.2 °F 43% 30.10 in 10.0 mi Calm Calm - N/A   Clear
12:55 AM 65.8 °F - 44.2 °F 46% 30.10 in 10.0 mi South 4.6 mph - N/A   Clear
1:15 AM 66.7 °F - 43.7 °F 43% 30.10 in 10.0 mi SW 4.6 mph - N/A   Clear
1:35 AM 68.2 °F - 42.6 °F 40% 30.09 in 10.0 mi SW 4.6 mph - N/A   Clear
1:55 AM 62.2 °F - 45.3 °F 54% 30.08 in 10.0 mi West 6.9 mph - N/A   Clear
2:15 AM 62.8 °F - 45.9 °F 54% 30.08 in 10.0 mi West 8.1 mph - N/A   Clear
2:35 AM 61.3 °F - 46.2 °F 58% 30.08 in 10.0 mi West 6.9 mph - N/A   Clear
2:55 AM 62.6 °F - 45.5 °F 54% 30.08 in 10.0 mi WSW 4.6 mph - N/A   Clear
3:15 AM 61.0 °F - 45.7 °F 57% 30.08 in 10.0 mi WSW 6.9 mph - N/A   Clear
3:35 AM 59.2 °F - 46.4 °F 63% 30.08 in 10.0 mi SSW 8.1 mph - N/A   Clear
3:55 AM 58.8 °F - 46.0 °F 63% 30.08 in 10.0 mi SSW 6.9 mph - N/A   Clear
4:15 AM 58.5 °F - 46.0 °F 63% 30.08 in 10.0 mi WSW 8.1 mph - N/A   Clear
4:35 AM 59.2 °F - 45.7 °F 61% 30.08 in 10.0 mi WSW 8.1 mph - N/A   Clear
4:55 AM 58.1 °F - 45.7 °F 63% 30.07 in 10.0 mi WSW 6.9 mph - N/A   Clear
5:15 AM 57.6 °F - 45.7 °F 65% 30.08 in 10.0 mi WSW 6.9 mph - N/A   Clear
5:35 AM 57.6 °F - 45.5 °F 64% 30.08 in 10.0 mi WSW 10.4 mph - N/A   Clear
5:55 AM 59.0 °F - 44.6 °F 59% 30.08 in 10.0 mi WSW 8.1 mph - N/A   Clear
6:15 AM 59.4 °F - 43.9 °F 57% 30.08 in 10.0 mi West 10.4 mph - N/A   Clear
6:35 AM 58.1 °F - 43.9 °F 59% 30.09 in 10.0 mi West 9.2 mph - N/A   Clear
6:55 AM 59.0 °F - 43.0 °F 55% 30.09 in 10.0 mi WSW 8.1 mph - N/A   Clear
7:15 AM 62.1 °F - 41.9 °F 48% 30.10 in 10.0 mi West 10.4 mph - N/A   Clear
7:35 AM 63.5 °F - 42.4 °F 46% 30.10 in 10.0 mi West 6.9 mph - N/A   Clear
7:55 AM 67.1 °F - 42.1 °F 40% 30.11 in 10.0 mi West 8.1 mph - N/A   Clear
8:15 AM 70.2 °F - 41.0 °F 35% 30.12 in 10.0 mi WNW 11.5 mph - N/A   Clear
8:35 AM 70.5 °F - 42.6 °F 36% 30.12 in 10.0 mi WNW 9.2 mph - N/A   Clear
8:55 AM 74.5 °F - 40.1 °F 29% 30.12 in 10.0 mi WNW 8.1 mph - N/A   Clear
9:15 AM 77.0 °F - 40.6 °F 27% 30.12 in 10.0 mi NW 10.4 mph - N/A   Clear
9:35 AM 76.1 °F - 43.5 °F 31% 30.13 in 10.0 mi NW 10.4 mph - N/A   Clear
9:55 AM 78.4 °F - 43.5 °F 29% 30.13 in 10.0 mi NNW 16.1 mph - N/A   Clear
10:15 AM 79.7 °F - 42.6 °F 27% 30.13 in 10.0 mi NNW 16.1 mph 21.9 mph N/A   Clear
10:35 AM 79.9 °F - 42.8 °F 27% 30.13 in 10.0 mi NNW 16.1 mph - N/A   Clear
10:55 AM 80.8 °F - 43.5 °F 27% 30.14 in 10.0 mi North 13.8 mph - N/A   Clear
11:15 AM 80.8 °F - 47.1 °F 31% 30.15 in 10.0 mi North 13.8 mph 19.6 mph N/A   Clear
11:35 AM 80.8 °F - 50.4 °F 35% 30.15 in 10.0 mi North 17.3 mph 20.7 mph N/A   Clear
11:55 AM 80.1 °F - 52.5 °F 38% 30.16 in 10.0 mi North 13.8 mph 21.9 mph N/A   Clear
12:15 PM 81.3 °F 80.6 °F 53.1 °F 37% 30.16 in 10.0 mi North 17.3 mph 21.9 mph N/A   Clear
12:35 PM 81.3 °F - 52.5 °F 37% 30.16 in 10.0 mi North 15.0 mph 20.7 mph N/A   Clear
12:55 PM 82.0 °F 81.2 °F 53.1 °F 37% 30.16 in 10.0 mi NNE 12.7 mph 20.7 mph N/A   Clear
1:15 PM 82.8 °F - 52.0 °F 34% 30.16 in 10.0 mi NE 13.8 mph 23.0 mph N/A   Clear
1:35 PM 83.3 °F - 50.7 °F 32% 30.17 in 10.0 mi NE 13.8 mph 21.9 mph N/A   Clear
1:55 PM 83.3 °F - 48.9 °F 30% 30.16 in 10.0 mi NE 10.4 mph 19.6 mph N/A   Clear
2:15 PM 84.2 °F - 48.7 °F 29% 30.16 in 10.0 mi NE 12.7 mph - N/A   Clear
2:35 PM 85.3 °F - 46.8 °F 26% 30.15 in 10.0 mi NE 11.5 mph 18.4 mph N/A   Clear
2:55 PM 85.5 °F - 47.7 °F 27% 30.15 in 10.0 mi East 11.5 mph 17.3 mph N/A   Clear
3:15 PM 86.4 °F - 47.1 °F 26% 30.15 in 10.0 mi NNE 12.7 mph 17.3 mph N/A   Clear
3:35 PM 86.4 °F - 46.2 °F 25% 30.14 in 10.0 mi NE 12.7 mph 18.4 mph N/A   Clear
4:15 PM 86.9 °F - 45.7 °F 24% 30.13 in 10.0 mi NNE 9.2 mph 18.4 mph N/A   Clear
4:35 PM 87.8 °F - 46.0 °F 23% 30.13 in 10.0 mi NE 10.4 mph 16.1 mph N/A   Clear
4:55 PM 87.8 °F - 46.6 °F 24% 30.13 in 10.0 mi NE 11.5 mph 17.3 mph N/A   Clear
5:15 PM 87.6 °F - 46.6 °F 24% 30.13 in 10.0 mi NE 12.7 mph 17.3 mph N/A   Clear
5:35 PM 87.4 °F - 46.0 °F 24% 30.13 in 10.0 mi NNE 9.2 mph 16.1 mph N/A   Clear
5:55 PM 87.8 °F - 45.9 °F 23% 30.12 in 10.0 mi NE 6.9 mph - N/A   Clear
6:15 PM 87.4 °F - 46.4 °F 24% 30.12 in 10.0 mi NE 8.1 mph - N/A   Clear
6:35 PM 87.4 °F - 46.0 °F 24% 30.11 in 10.0 mi NE 8.1 mph 17.3 mph N/A   Clear
6:55 PM 87.1 °F - 46.2 °F 24% 30.10 in 10.0 mi East 13.8 mph - N/A   Clear
7:15 PM 86.7 °F - 46.4 °F 25% 30.09 in 10.0 mi East 12.7 mph 18.4 mph N/A   Clear
7:35 PM 86.2 °F - 46.6 °F 25% 30.10 in 10.0 mi East 10.4 mph - N/A   Clear
7:55 PM 85.3 °F - 45.9 °F 25% 30.10 in 10.0 mi East 10.4 mph - N/A   Clear
8:15 PM 84.2 °F - 46.2 °F 26% 30.10 in 10.0 mi East 6.9 mph - N/A   Clear
8:35 PM 82.6 °F - 47.5 °F 29% 30.10 in 10.0 mi East 6.9 mph - N/A   Clear
8:55 PM 79.7 °F - 48.6 °F 33% 30.10 in 10.0 mi East 8.1 mph - N/A   Clear
9:15 PM 76.6 °F - 49.3 °F 38% 30.10 in 10.0 mi East 6.9 mph - N/A   Clear
9:35 PM 73.8 °F - 49.3 °F 42% 30.11 in 10.0 mi East 8.1 mph - N/A   Clear
9:55 PM 72.5 °F - 48.9 °F 43% 30.11 in 10.0 mi East 8.1 mph - N/A   Clear
10:15 PM 72.7 °F - 48.2 °F 42% 30.12 in 10.0 mi SE 5.8 mph - N/A   Clear
10:35 PM 71.2 °F - 48.7 °F 45% 30.12 in 10.0 mi East 9.2 mph - N/A   Clear
10:55 PM 70.5 °F - 49.1 °F 47% 30.13 in 10.0 mi ESE 5.8 mph - N/A   Clear
11:15 PM 68.0 °F - 50.0 °F 52% 30.14 in 10.0 mi SE 6.9 mph - N/A   Clear
11:35 PM 67.1 °F - 50.9 °F 56% 30.14 in 10.0 mi SE 8.1 mph - N/A   Clear
11:55 PM 66.9 °F - 51.1 °F 57% 30.14 in 10.0 mi SE 6.9 mph - N/A   Clear